Location: Augirein
(42.9320°N, 0.9181°E)
Time: 20:01:25
(UTC+00:00)

Cosmos 1656 Rocket - Pass Details

Date: 20 June 2021
Orbit: 794 x 847 km, 71.1° (Epoch: 31 July)

Event Time Altitude Azimuth Distance (km) Brightness Sun altitude
Rises 02:02:17 0° 326° (NNW) 3,418 7.2 -17.7°
Reaches altitude 10° 02:04:57 10° 318° (NW) 2,477 6.3 -17.5°
Maximum altitude 02:09:57 33° 256° (WSW) 1,397 4.5 -17.0°
Enters shadow 02:11:42 27° 223° (SW) 1,567 4.5 -16.8°
